Retour au catalogue

STARLINK-11138

ActifCommunicationsVLEO
NORAD 59949·PAYLOAD·🇺🇸 United States

Lancé Jun 5, 2024 depuis Cape Canaveral Space Force Station

Loading…

Prochains Passages (prochaines 24 heures)

TLE

FraisSource: CelesTrak SupGP

Époque: Sep 15, 2026, 03:05 UTC

1 59949C 24107E   26258.12895833 -.00060797  00000+0 -50081-3 0  2587
2 59949  53.1567  37.3629 0001003  84.8696 142.5675 15.69739974    11

Suivez STARLINK-11138 en temps réel avec AllMySat

Download on the App Store